Location: Hackberry
(29.5783°N, 96.8797°W)
Time: 03:55:53
(UTC+00:00)

Explorer 11/Cluster Stage 4 - Pass Details

Date: 18 November 2024
Orbit: 464 x 1202 km, 28.8° (Epoch: 03 December)

Event Time Altitude Azimuth Distance (km) Brightness Sun altitude
Exits shadow 11:37:40 28° 266° (W) 1,263 7.1 -16.8°
Maximum altitude 11:40:10 67° 191° (SSW) 685 6.2 -16.3°
Drops below altitude 10° 11:44:21 10° 109° (ESE) 1,835 9.9 -15.4°
Sets 11:46:26 0° 106° (ESE) 2,650 11.3 -15.0°
